Location: Newark
(45.5000°N, 11.4167°E)
Time: 07:31:13
(UTC+00:00)

A-11 Canister half - Pass Details

Date: 28 August 2019
Orbit: 1513 x 1686 km, 47.2° (Epoch: 18 September)

Event Time Altitude Azimuth Distance (km) Brightness Sun altitude
Rises 00:28:19 0° 284° (WNW) 4,843 11.6 -32.3°
Enters shadow 00:31:10 - 272° (W) 4,324 11.2 -32.1°
Reaches altitude 10° 00:35:04 10° 252° (WSW) 3,894 - -31.8°
Maximum altitude 00:37:11 11° 239° (WSW) 3,835 - -31.7°
Drops below altitude 10° 00:39:19 10° 226° (SW) 3,912 - -31.5°
Sets 00:46:15 0° 194° (SSW) 4,919 - -31.0°
